This is the latest recevied weather packets stored in our database for station/object W8AN. If no packets are shown the sender has not sent any weather packets the latest 10 day(s).
| Time | Temp. | Humidity | Pressure | Rain* | Wind** | Luminosity | Snow |
|---|---|---|---|---|---|---|---|
| 1778158291 | 7.22° C | 72% | 4268.8 hPa | 0 mm | - | 320 W/m² | - |
| 1778157986 | 7.22° C | 72% | 4268.8 hPa | 0 mm | - | 312 W/m² | - |
| 1778157684 | 6.67° C | 72% | 4268.8 hPa | 0 mm | - | 184 W/m² | - |
| 1778157382 | 6.67° C | 72% | 4268.5 hPa | 0 mm | - | 212 W/m² | - |
| 1778157079 | 6.67° C | 73% | 4268.6 hPa | 0 mm | - | 182 W/m² | - |
| 1778156774 | 6.67° C | 73% | 4268.5 hPa | 0 mm | - | 187 W/m² | - |
| 1778156470 | 6.67° C | 74% | 4268.6 hPa | 0 mm | - | 200 W/m² | - |
| 1778156166 | 6.11° C | 74% | 4268.7 hPa | 0 mm | - | 188 W/m² | - |
| 1778155862 | 6.11° C | 74% | 4268.7 hPa | 0 mm | - | 150 W/m² | - |
| 1778155558 | 6.11° C | 75% | 4268.8 hPa | 0 mm | - | 136 W/m² | - |
| 1778155255 | 6.11° C | 76% | 4268.7 hPa | 0 mm | - | 124 W/m² | - |
| 1778154952 | 5.56° C | 76% | 4268.6 hPa | 0 mm | - | 122 W/m² | - |
| 1778154648 | 5.56° C | 76% | 4268.7 hPa | 0 mm | - | 98 W/m² | - |
| 1778154343 | 5.56° C | 76% | 4268.6 hPa | 0 mm | - | 83 W/m² | - |
| 1778154041 | 5.56° C | 77% | 4268.6 hPa | 0 mm | - | 70 W/m² | - |
| 1778153738 | 5.56° C | 77% | 4268.6 hPa | 0 mm | - | 65 W/m² | - |
| 1778153435 | 5° C | 78% | 4268.6 hPa | 0 mm | - | 57 W/m² | - |
| 1778153133 | 5° C | 78% | 4268.3 hPa | 0 mm | - | 50 W/m² | - |
| 1778152829 | 5° C | 78% | 4268.3 hPa | 0 mm | - | 48 W/m² | - |
| 1778152527 | 5° C | 78% | 4268.3 hPa | 0 mm | - | 39 W/m² | - |
| 1778152223 | 5° C | 79% | 4268.3 hPa | 0 mm | - | 33 W/m² | - |
| 1778151920 | 5° C | 79% | 4268.1 hPa | 0 mm | - | 26 W/m² | - |
| 1778151616 | 5° C | 79% | 4268.4 hPa | 0 mm | - | 23 W/m² | - |
| 1778151313 | 5° C | 79% | 4268.1 hPa | 0 mm | - | 17 W/m² | - |
| 1778151009 | 4.44° C | 79% | 4268 hPa | 0 mm | - | 14 W/m² | - |
* Rain latest hour (hover to see other rain measurements)
** Current wind speed in m/s (hover to see current wind gust speed)